Location: Cisewo
(53.3833°N, 14.9000°E)
Time: 11:22:49
(UTC+00:00)

Helios 1A - Pass Details

Date: 18 April 2021
Orbit: 586 x 600 km, 98.2° (Epoch: 05 May)

Event Time Altitude Azimuth Distance (km) Brightness Sun altitude
Exits shadow 23:45:20 76° 346° (NNW) 622 3.0 -24.7°
Drops below altitude 10° 23:49:13 10° 345° (NNW) 1,942 6.4 -24.6°
Sets 23:51:24 0° 345° (NNW) 2,846 7.4 -24.5°
